• Em Portugal
  • Lista de países
  • Para 7 dias
  • Temperatura da água
  • Mapas de satélite
  • Mapa do tempo
  • Widgets de tempo
  • user-avatar
    Iniciar Sessão

    Previsão horária em Dziecmorowice

    Hoje, 25 Setembro, Terça-feira

    Tempo Temperatura Precipitação Vento Pressão Humidade
    00:00 +3°C° 0 mm 4 m/s 732 mmHg 83%
    01:00 +2°C° 0 mm 3 m/s 732 mmHg 88%
    02:00 +2°C° 0 mm 3 m/s 733 mmHg 88%
    03:00 +1°C° 0 mm 4 m/s 733 mmHg 87%
    04:00 +1°C° 0 mm 4 m/s 733 mmHg 87%
    05:00 +1°C° 0 mm 4 m/s 734 mmHg 85%
    06:00 +3°C° 0 mm 4 m/s 734 mmHg 84%
    07:00 +3°C° 0 mm 4 m/s 735 mmHg 80%
    08:00 +4°C° 0 mm 4 m/s 736 mmHg 74%
    09:00 +6°C° 0 mm 5 m/s 736 mmHg 68%
    10:00 +7°C° 0 mm 5 m/s 737 mmHg 61%
    11:00 +8°C° 0 mm 5 m/s 737 mmHg 58%
    12:00 +9°C° 0 mm 5 m/s 737 mmHg 54%
    13:00 +10°C° 0 mm 5 m/s 737 mmHg 50%
    14:00 +9°C° 0 mm 5 m/s 737 mmHg 50%
    15:00 +10°C° 0 mm 4 m/s 737 mmHg 51%
    16:00 +10°C° 0 mm 4 m/s 737 mmHg 52%
    17:00 +9°C° 0 mm 3 m/s 737 mmHg 58%
    18:00 +7°C° 0 mm 3 m/s 737 mmHg 64%
    19:00 +6°C° 0 mm 2 m/s 738 mmHg 71%
    20:00 +5°C° 0 mm 2 m/s 738 mmHg 72%
    21:00 +5°C° 0 mm 2 m/s 738 mmHg 73%
    22:00 +4°C° 0 mm 2 m/s 739 mmHg 74%
    23:00 +4°C° 0 mm 2 m/s 739 mmHg 75%

    Amanhã, 26 Setembro, Quarta-feira

    Tempo Temperatura Precipitação Vento Pressão Humidade
    00:00 +4°C° 0 mm 2 m/s 739 mmHg 75%
    01:00 +4°C° 0 mm 2 m/s 739 mmHg 76%
    02:00 +3°C° 0 mm 2 m/s 739 mmHg 76%
    03:00 +3°C° 0 mm 2 m/s 738 mmHg 77%
    04:00 +3°C° 0 mm 2 m/s 738 mmHg 77%
    05:00 +3°C° 0 mm 2 m/s 738 mmHg 76%
    06:00 +4°C° 0 mm 2 m/s 738 mmHg 75%
    07:00 +4°C° 0 mm 2 m/s 738 mmHg 73%
    08:00 +6°C° 0 mm 2 m/s 738 mmHg 65%
    09:00 +8°C° 0 mm 3 m/s 738 mmHg 56%
    10:00 +10°C° 0 mm 3 m/s 738 mmHg 48%
    11:00 +12°C° 0 mm 4 m/s 738 mmHg 45%
    12:00 +13°C° 0 mm 4 m/s 737 mmHg 42%
    13:00 +14°C° 0 mm 5 m/s 737 mmHg 39%
    14:00 +14°C° 0 mm 4 m/s 736 mmHg 40%
    15:00 +14°C° 0 mm 4 m/s 736 mmHg 42%
    16:00 +14°C° 0 mm 4 m/s 735 mmHg 43%
    17:00 +12°C° 0 mm 4 m/s 735 mmHg 46%
    18:00 +11°C° 0 mm 4 m/s 735 mmHg 49%
    19:00 +8°C° 0 mm 4 m/s 734 mmHg 51%
    20:00 +8°C° 0 mm 4 m/s 734 mmHg 52%
    21:00 +8°C° 0 mm 4 m/s 734 mmHg 53%
    22:00 +8°C° 0 mm 4 m/s 734 mmHg 54%
    23:00 +8°C° 0 mm 4 m/s 734 mmHg 55%

    Depois de amanhã, 27 Setembro, Quinta-feira

    Tempo Temperatura Precipitação Vento Pressão Humidade
    00:00 +8°C° 0 mm 3 m/s 734 mmHg 56%
    01:00 +8°C° 0 mm 3 m/s 734 mmHg 56%
    02:00 +8°C° 0 mm 3 m/s 734 mmHg 57%
    03:00 +8°C° 0 mm 3 m/s 734 mmHg 57%
    04:00 +8°C° 0 mm 3 m/s 733 mmHg 57%
    05:00 +8°C° 0 mm 3 m/s 733 mmHg 58%
    06:00 +9°C° 0 mm 3 m/s 733 mmHg 58%
    07:00 +9°C° 0 mm 3 m/s 733 mmHg 58%
    08:00 +11°C° 0 mm 3 m/s 734 mmHg 55%
    09:00 +13°C° 0 mm 4 m/s 734 mmHg 52%
    10:00 +15°C° 0 mm 4 m/s 734 mmHg 50%
    11:00 +18°C° 0 mm 4 m/s 734 mmHg 50%
    12:00 +19°C° 0 mm 4 m/s 733 mmHg 50%
    13:00 +20°C° 0 mm 4 m/s 733 mmHg 50%
    14:00 +20°C° 0 mm 4 m/s 733 mmHg 52%
    15:00 +20°C° 0 mm 3 m/s 732 mmHg 53%
    16:00 +20°C° 0 mm 3 m/s 732 mmHg 55%
    17:00 +18°C° 0 mm 3 m/s 732 mmHg 59%
    18:00 +16°C° 0 mm 2 m/s 731 mmHg 63%
    19:00 +14°C° 0 mm 2 m/s 731 mmHg 68%
    20:00 +14°C° 0 mm 2 m/s 731 mmHg 67%
    21:00 +13°C° 0 mm 2 m/s 730 mmHg 65%
    22:00 +13°C° 0 mm 2 m/s 730 mmHg 64%
    23:00 +13°C° 0 mm 2 m/s 729 mmHg 64%

    28 Setembro, Sexta-feira

    Tempo Temperatura Precipitação Vento Pressão Humidade
    00:00 +12°C° 0 mm 3 m/s 729 mmHg 64%
    01:00 +11°C° 0 mm 3 m/s 728 mmHg 64%
    02:00 +11°C° 0 mm 3 m/s 728 mmHg 63%
    03:00 +11°C° 0 mm 3 m/s 727 mmHg 63%
    04:00 +10°C° 0 mm 3 m/s 727 mmHg 63%
    05:00 +10°C° 0 mm 3 m/s 726 mmHg 64%
    06:00 +10°C° 0 mm 3 m/s 726 mmHg 64%
    07:00 +10°C° 0 mm 3 m/s 726 mmHg 64%
    08:00 +12°C° 0 mm 3 m/s 726 mmHg 60%
    09:00 +14°C° 0 mm 3 m/s 727 mmHg 55%
    10:00 +17°C° 0 mm 4 m/s 727 mmHg 50%
    11:00 +17°C° 0 mm 4 m/s 727 mmHg 49%
    12:00 +18°C° 0 mm 4 m/s 727 mmHg 47%
    13:00 +18°C° 0 mm 4 m/s 727 mmHg 46%
    14:00 +18°C° 0 mm 4 m/s 726 mmHg 50%
    15:00 +17°C° 0 mm 4 m/s 726 mmHg 55%
    16:00 +15°C° 0 mm 4 m/s 726 mmHg 59%
    17:00 +14°C° 0 mm 4 m/s 726 mmHg 67%
    18:00 +12°C° 0 mm 3 m/s 727 mmHg 74%
    19:00 +10°C° 0 mm 3 m/s 727 mmHg 82%
    20:00 +9°C° 0 mm 2 m/s 727 mmHg 83%
    21:00 +9°C° 0 mm 2 m/s 727 mmHg 84%
    22:00 +8°C° 0 mm 2 m/s 728 mmHg 85%
    23:00 +8°C° 0 mm 2 m/s 728 mmHg 84%

    29 Setembro, Sábado

    Tempo Temperatura Precipitação Vento Pressão Humidade
    00:00 +7°C° 0 mm 2 m/s 728 mmHg 84%
    01:00 +7°C° 0 mm 2 m/s 728 mmHg 84%
    02:00 +6°C° 0 mm 2 m/s 728 mmHg 86%
    03:00 +6°C° 0 mm 2 m/s 729 mmHg 87%
    04:00 +5°C° 0 mm 2 m/s 729 mmHg 89%
    05:00 +5°C° 0 mm 2 m/s 729 mmHg 88%
    06:00 +5°C° 0 mm 2 m/s 730 mmHg 88%
    07:00 +5°C° 0 mm 2 m/s 730 mmHg 87%
    08:00 +7°C° 0 mm 3 m/s 731 mmHg 77%
    09:00 +9°C° 0 mm 3 m/s 731 mmHg 66%
    10:00 +10°C° 0 mm 3 m/s 732 mmHg 56%
    11:00 +11°C° 0 mm 3 m/s 731 mmHg 52%
    12:00 +11°C° 0 mm 4 m/s 731 mmHg 49%
    13:00 +12°C° 0 mm 4 m/s 731 mmHg 45%
    14:00 +12°C° 0 mm 3 m/s 731 mmHg 46%
    15:00 +12°C° 0 mm 3 m/s 731 mmHg 47%
    16:00 +11°C° 0 mm 3 m/s 731 mmHg 48%
    17:00 +10°C° 0 mm 3 m/s 731 mmHg 54%
    18:00 +8°C° 0 mm 2 m/s 731 mmHg 59%
    19:00 +7°C° 0 mm 2 m/s 731 mmHg 65%
    20:00 +6°C° 0 mm 2 m/s 731 mmHg 67%
    21:00 +6°C° 0 mm 2 m/s 732 mmHg 68%
    22:00 +5°C° 0 mm 2 m/s 732 mmHg 70%
    23:00 +5°C° 0 mm 2 m/s 731 mmHg 71%

    30 Setembro, Domingo

    Tempo Temperatura Precipitação Vento Pressão Humidade
    00:00 +6°C° 0 mm 1 m/s 731 mmHg 72%
    01:00 +5°C° 0 mm 1 m/s 731 mmHg 73%
    02:00 +5°C° 0 mm 1 m/s 731 mmHg 74%
    03:00 +5°C° 0 mm 1 m/s 730 mmHg 76%
    04:00 +4°C° 0 mm 1 m/s 730 mmHg 78%
    05:00 +5°C° 0 mm 1 m/s 730 mmHg 77%
    06:00 +5°C° 0 mm 1 m/s 730 mmHg 77%
    07:00 +5°C° 0 mm 1 m/s 730 mmHg 77%
    08:00 +7°C° 0 mm 2 m/s 730 mmHg 68%
    09:00 +9°C° 0 mm 3 m/s 729 mmHg 59%
    10:00 +11°C° 0 mm 3 m/s 729 mmHg 51%
    11:00 +12°C° 0 mm 3 m/s 729 mmHg 48%
    12:00 +13°C° 0 mm 3 m/s 728 mmHg 45%
    13:00 +13°C° 0 mm 3 m/s 728 mmHg 42%
    14:00 +13°C° 0 mm 3 m/s 727 mmHg 44%
    15:00 +13°C° 0 mm 3 m/s 727 mmHg 45%
    16:00 +13°C° 0 mm 3 m/s 726 mmHg 46%
    17:00 +12°C° 0 mm 2 m/s 726 mmHg 53%
    18:00 +9°C° 0 mm 2 m/s 726 mmHg 59%
    19:00 +9°C° 0 mm 1 m/s 725 mmHg 65%
    20:00 +8°C° 0 mm 1 m/s 725 mmHg 66%
    21:00 +8°C° 0 mm 1 m/s 725 mmHg 67%
    22:00 +7°C° 0 mm 1 m/s 725 mmHg 68%
    23:00 +7°C° 0 mm 1 m/s 724 mmHg 69%
    Mostrar mais